Tracking 31027 objects as of 19-Jul-2025
HD Live streaming from Space Station
objects crossing your sky now

SL-8 DEB

Track SL-8 DEB now!
10-day predictions


NORAD ID: 21255
Int'l Code: 1990-111C
Perigee: 721.1 km
Apogee: 738.5 km
Inclination: 74.0 °
Period: 99.2 minutes
Semi major axis: 7100 km
RCS: 0.0095 m2 (small)
Launch date: December 10, 1990
Source: Commonwealth of Independent States (former USSR) (CIS)
Launch site: PLESETSK MISSILE AND SPACE COMPLEX (PKMTR)

Note: This is SATELLITE DEBRIS
Your satellite tracking list
Your tracking list is empty




NASA's NSSDC Master Catalog

Two Line Element Set (TLE):
1 21255U 90111C   25199.72738487  .00001031  00000-0  26798-3 0  9999
2 21255  74.0368 304.7652 0012262 177.0953 333.3453 14.50913466817219
Source of the keplerian elements: AFSPC